User: anonymous   Login
Location: Unspecified
(0.0000°N, 0.0000°E)
Time: 05:23:50
(UTC+00:00)
Language:

SRMSAT - Orbit

View from above orbital plane
View from above orbital plane
View from above satellite
View from above satellite

Ground track
Ground track

The orbit data is extracted from the following two-line orbital elements,

1 37841U 11058D   19083.70858045  .00000322  00000-0  31987-4 0  9995
2 37841  19.9710 191.1819 0011882 332.9841 147.9263 14.10627299384538
Epoch (UTC): 24 March 2019 17:00:21
Eccentricity: 0.0011882
inclination: 19.9710°
perigee height: 848 km
apogee height: 866 km
right ascension of ascending node: 191.1819°
argument of perigee: 332.9841°
revolutions per day: 14.10627299
mean anomaly at epoch: 147.9263°
orbit number at epoch: 38453

The dashed part of the orbit path shows where the satellite is in the earth's shadow,  

DLR